Location: G�ndlingen
(48.0142°N, 7.6396°E)
Time: 08:20:26
(UTC+00:00)

Cosmos 1408 - Pass Details

Date: 05 July 2020
Orbit: 470 x 494 km, 82.6° (Epoch: 04 August)

Event Time Altitude Azimuth Distance (km) Brightness Sun altitude
Exits shadow 23:03:10 22° 246° (WSW) 1,090 4.2 -19.0°
Maximum altitude 23:04:36 29° 286° (WNW) 894 4.1 -19.0°
Drops below altitude 10° 23:07:47 10° 349° (N) 1,645 6.5 -19.1°
Sets 23:10:05 0° 1° (N) 2,528 7.8 -19.1°
